"Pseudo-MPEC" for P117N4C

Created 2020 Oct 20 16:07:23 UT using Find_Orb

Click here for an explanation of pseudo-MPECs

 
 Astrometry: 
     P117N4C  C2020 10 14*3Yb1k97Wx;:cPx3PBD'FfFUrPh5rUH5AstrometryA9N2qLMejWF51
     P117N4C  C2020 10 14=W7Gyredacted;[NyHO.JG_BjtnEv)fj1R;^%Z(\w_sD8/L7W!F[F51
     P117N4C  C2020 10 14#_Wm3Kl//3y@e:XEt`[Ky/I7vclick)hereuQ)0.hgUUlHd![v2TF51
     P117N4C  C2020 10 15Eao'fnj6`.fi]qLmnZ[IL]g(r_$srXrfor3'SyvCi\QU%4M+'-y;F51
     P117N4C  C2020 10 15BBiJxONK!`D4hQguWTf3omPqlCs4#8UE@'FZ%4HV@+3tfy-[mK1GF51
     P117N4C  C2020 10 15BWDexplanationoEG2]#WW^X8=l`MH[Y[UE[cZ(hkOe#tZHAF`x$F51
     P117N4C ^C2020 10 20.29688100 36 21.306-02 34 23.24   ~AK7q 22.76GVNEOCP568
     P117N4C ^C2020 10 20.29782900 36 21.367-02 34 21.29   ~AK7q 22.75GVNEOCP568
     P117N4C ^C2020 10 20.29877400 36 21.428-02 34 19.37   ~AK7q 23.06GVNEOCP568

Station data:
(568) Mauna Kea  (N19.826116 W155.472200)  US/Hawaii.
(F51) Pan-STARRS 1, Haleakala  (N20.707235 W156.255910)  US/Hawaii.
   Observers N. Primak, A. Schultz, S. Watters, J. Thiel, T. Goggia. Measurer
   PS1 Science Consortium. 1.8-m Ritchey-Chrétien + CCD.

Orbital elements:  P117N4C
   Perihelion 2020 Aug 27.304411 +/- 0.173 TT =  7:18:21 (JD 2459088.804411)
Epoch 2020 Oct 20.0 TT = JDT 2459142.5   Earth MOID: 0.0014   Ju: 0.5171
M  12.83691293 +/- 0.49             Ve: 0.0246   Me: 0.0522   Ma: 0.0178
n   0.23906829 +/- 0.00855          Peri.  101.30051 +/- 0.054
a   2.57111434 +/- 0.0613           Node   176.35398 +/- 0.047
e   0.8121812 +/- 0.00513           Incl.    1.73055 +/- 0.008
P   4.12                   H 26.1   G  0.15   U  9.5  
q 0.48290347 +/- 0.0017    Q 4.65932521 +/- 0.127             AutoNEOCP
From 9 observations 2020 Oct. 14-20; mean residual 0".16
Residuals in arcseconds: 
201014 F51  .08+  .02-    201015 F51  .05-  .08-    201020 568  .01-  .02-    
201014 F51  .03-  .02-    201015 F51  .25-  .35-    201020 568  .00   .01+    
201014 F51  .02-  .03+    201015 F51  .25+  .44+    201020 568  .02+  .00     

Ephemerides (geocentric):
Date (UTC) HH   RA              Dec         delta   r     elong  mag " sig PA
---- -- -- --  -------------   -----------  ------ ------ -----  --- ---- ---
2020 10 20 16  00 36 49.501   -02 21 52.77  .16218 1.1487 159.3 23.4 .145 138
2020 10 20 17  00 36 52.758   -02 20 33.55  .16283 1.1493 159.3 23.4 .143 139
2020 10 20 18  00 36 55.993   -02 19 14.91  .16348 1.1499 159.3 23.4 .142 140
2020 10 20 19  00 36 59.207   -02 17 56.84  .16413 1.1505 159.2 23.4 .141 141
2020 10 20 20  00 37 02.400   -02 16 39.34  .16478 1.1511 159.2 23.4 .139 142
2020 10 20 21  00 37 05.572   -02 15 22.39  .16544 1.1517 159.2 23.4 .138 143
2020 10 20 22  00 37 08.723   -02 14 06.00  .16609 1.1523 159.2 23.4 .137 144
2020 10 20 23  00 37 11.854   -02 12 50.15  .16674 1.1529 159.2 23.5 .135 146
2020 10 21 00  00 37 14.965   -02 11 34.84  .16739 1.1535 159.2 23.5 .134 147
2020 10 21 01  00 37 18.057   -02 10 20.06  .16804 1.1541 159.1 23.5 .133 149
2020 10 21 02  00 37 21.128   -02 09 05.81  .16870 1.1547 159.1 23.5 .132 150
2020 10 21 03  00 37 24.181   -02 07 52.08  .16935 1.1553 159.1 23.5 .132 152
2020 10 21 04  00 37 27.214   -02 06 38.86  .17000 1.1559 159.1 23.5 .131 153
2020 10 21 05  00 37 30.229   -02 05 26.16  .17066 1.1564 159.1 23.5 .130 155
2020 10 21 06  00 37 33.224   -02 04 13.95  .17131 1.1570 159.1 23.5 .130 157
2020 10 21 07  00 37 36.202   -02 03 02.24  .17196 1.1576 159.0 23.5 .130 159
2020 10 21 08  00 37 39.161   -02 01 51.03  .17262 1.1582 159.0 23.5 .130 160
2020 10 21 09  00 37 42.103   -02 00 40.29  .17327 1.1588 159.0 23.6 .130 162
2020 10 21 10  00 37 45.026   -01 59 30.04  .17392 1.1594 159.0 23.6 .130 164
2020 10 21 11  00 37 47.933   -01 58 20.27  .17458 1.1600 159.0 23.6 .130 166
2020 10 21 12  00 37 50.821   -01 57 10.96  .17523 1.1606 158.9 23.6 .131 168
2020 10 21 13  00 37 53.693   -01 56 02.12  .17589 1.1612 158.9 23.6 .132 170
2020 10 21 14  00 37 56.548   -01 54 53.74  .17654 1.1618 158.9 23.6 .133 172
2020 10 21 15  00 37 59.386   -01 53 45.81  .17720 1.1624 158.9 23.6 .134 174
2020 10 21 16  00 38 02.208   -01 52 38.33  .17785 1.1630 158.9 23.6 .136 177
2020 10 21 17  00 38 05.013   -01 51 31.29  .17851 1.1636 158.8 23.6 .137 179
2020 10 21 18  00 38 07.803   -01 50 24.70  .17916 1.1642 158.8 23.6 .139   1
2020 10 21 19  00 38 10.576   -01 49 18.53  .17982 1.1647 158.8 23.6 .141   3
2020 10 21 20  00 38 13.334   -01 48 12.80  .18047 1.1653 158.8 23.7 .144   5
2020 10 21 21  00 38 16.076   -01 47 07.49  .18113 1.1659 158.8 23.7 .146   6
2020 10 21 22  00 38 18.803   -01 46 02.61  .18178 1.1665 158.7 23.7 .149   8
2020 10 21 23  00 38 21.515   -01 44 58.14  .18244 1.1671 158.7 23.7 .152  10
2020 10 22 00  00 38 24.211   -01 43 54.08  .18309 1.1677 158.7 23.7 .156  12
2020 10 22 01  00 38 26.893   -01 42 50.43  .18375 1.1683 158.7 23.7 .159  14
2020 10 22 02  00 38 29.560   -01 41 47.18  .18441 1.1689 158.7 23.7 .163  15
2020 10 22 03  00 38 32.213   -01 40 44.33  .18506 1.1695 158.6 23.7 .167  17
2020 10 22 04  00 38 34.851   -01 39 41.87  .18572 1.1701 158.6 23.7 .171  19
2020 10 22 05  00 38 37.475   -01 38 39.80  .18638 1.1707 158.6 23.7 .176  20
2020 10 22 06  00 38 40.086   -01 37 38.12  .18703 1.1713 158.6 23.7 .180  22
2020 10 22 07  00 38 42.682   -01 36 36.82  .18769 1.1718 158.6 23.8 .185  23
2020 10 22 08  00 38 45.265   -01 35 35.90  .18835 1.1724 158.5 23.8 .190  24
2020 10 22 09  00 38 47.834   -01 34 35.35  .18900 1.1730 158.5 23.8 .195  26
2020 10 22 10  00 38 50.390   -01 33 35.17  .18966 1.1736 158.5 23.8 .201  27
2020 10 22 11  00 38 52.932   -01 32 35.36  .19032 1.1742 158.5 23.8 .206  28
2020 10 22 12  00 38 55.462   -01 31 35.91  .19098 1.1748 158.5 23.8 .212  29
2020 10 22 13  00 38 57.979   -01 30 36.82  .19163 1.1754 158.4 23.8 .218  30
2020 10 22 14  00 39 00.483   -01 29 38.09  .19229 1.1760 158.4 23.8 .224  31
2020 10 22 15  00 39 02.974   -01 28 39.70  .19295 1.1766 158.4 23.8 .230  32